[Iaude] MPEC D71: 2024 DT [a=2.09,e=0.65,i=7.3,H=24.3]

mpec at cfa.harvard.edu mpec at cfa.harvard.edu
Mon Feb 19 10:34:17 EST 2024


M.P.E.C. 2024-D71                             Issued 2024 February 19, 15:32 UT

     The Minor Planet Electronic Circulars contain information on unusual
         minor planets, routine data on comets and natural satellites,
         and occasional editorial announcements.  They are published
    on behalf of Division F of the International Astronomical Union by the
          Minor Planet Center, Smithsonian Astrophysical Observatory,
                          Cambridge, MA 02138, U.S.A.
			  
             Prepared using the Tamkin Foundation Computer Network

                              MPC at CFA.HARVARD.EDU
            URL https://www.minorplanetcenter.net/    ISSN 1523-6714

                                    2024 DT                                     


Observations:
     K24D00T*1C2024 02 17.29543811 31 07.972+40 09 53.32         20.69GVED071G96
     K24D00T 1C2024 02 17.30106911 31 05.480+40 09 33.01         20.68GVED071G96
     K24D00T 1C2024 02 17.30669911 31 03.018+40 09 12.78         20.76GVED071G96
     K24D00T 1C2024 02 17.31233611 31 00.559+40 08 52.44         20.95GVED071G96
     K24D00T  C2024 02 17.38813511 30 27.147+40 04 14.87         21.2 GVED071H01
     K24D00T  C2024 02 17.39502511 30 24.168+40 03 49.46         21.1 GVED071H01
     K24D00T KC2024 02 17.39865311 30 22.921+40 03 38.34         20.79GVED071I52
     K24D00T  C2024 02 17.40174811 30 21.267+40 03 24.56         20.7 GVED071H01
     K24D00T KC2024 02 17.40558411 30 19.912+40 03 12.71         21.13GVED071I52
     K24D00T KC2024 02 17.40904911 30 18.421+40 03 00.25         20.91GVED071I52
     K24D00T  C2024 02 17.41093111 30 17.300+40 02 50.49         21.2 GVED071H01
     K24D00T KC2024 02 18.29958311 24 53.186+39 11 26.09         20.65GVED071I52
     K24D00T KC2024 02 18.30287611 24 52.013+39 11 15.54         21.31GVED071I52
     K24D00T KC2024 02 18.30615811 24 50.731+39 11 05.10         20.74GVED071I52
     K24D00T KC2024 02 18.30943911 24 49.583+39 10 54.73         20.80GVED071I52
     K24D00T KC2024 02 19.22673711 20 00.092+38 22 54.26         21.38GVED071I52
     K24D00T KC2024 02 19.23200711 19 58.472+38 22 39.40         21.11GVED071I52
     K24D00T KC2024 02 19.24252511 19 55.110+38 22 09.88         21.70GVED071I52
     K24D00T KC2024 02 19.24582411 19 52.37 +38 22 00.2          21.2 GVED071H21
     K24D00T KC2024 02 19.24871311 19 51.46 +38 21 51.9          21.3 GVED071H21
     K24D00T KC2024 02 19.25160211 19 50.53 +38 21 43.6          21.4 GVED071H21

Observer details:
G96 Mt. Lemmon Survey.  Observers T. Beuden, J. K. Hogan.  Measurers T.
    Beuden, V. F. Carvajal, D. Fay, J. B. Fazekas, D. C. Fuls, A. R. Gibbs, A.
    D. Grauer, H. Groeller, J. K. Hogan, R. A. Kowalski, S. M. Larson, G. J.
    Leonard, D. Rankin, R. L. Seaman, F. C. Shelly, K. W. Wierzchos.  1.5-m
    reflector + 10K CCD.
H01 Magdalena Ridge Observatory, Socorro.  Observers W. H. Ryan, E. V. Ryan.
    Measurer W. H. Ryan.  2.4-m f/8.9 Ritchey-Chretien + CCD.
H21 Astronomical Research Observatory, Westfield.  Observer R. Holmes.
    Measurers T. Linder, R. Holmes, L. Horn.  1.3-m f/4.0 astrograph + CCD.
I52 Steward Observatory, Mt. Lemmon Station.  Observer J. B. Fazekas.
    Measurers E. C. Beshore, D. Fay, J. B. Fazekas, D. C. Fuls, A. R. Gibbs,
    A. D. Grauer, H. Groeller, J. K. Hogan, R. A. Kowalski, S. M. Larson, G.
    J. Leonard, D. Rankin, R. L. Seaman, F. C. Shelly, K. W. Wierzchos.  1.0-m
    prime focus + CCD.

Orbital elements:
2024 DT                                                  Earth MOID = 0.0364 AU
Epoch 2024 Mar. 31.0 TT = JDT 2460400.5                 MPC                     
M  31.33146              (2000.0)            P               Q                  
n   0.32729971     Peri.  307.10347     +0.36721184     -0.92365562             
a   2.0853180      Node   121.00656     +0.88881059     +0.31371289             
e   0.6507558      Incl.    7.34774     +0.27417367     +0.22010116             
P   3.01           H   24.36          G   0.15           U   8                  
Residuals in seconds of arc
240217 G96  0.2+  0.3+    240217 H01  0.1+  0.1-    240218 I52  0.4+  0.0
240217 G96  0.1-  0.1+    240217 I52  0.1-  0.1-    240219 I52  0.1-  0.2-
240217 G96  0.2-  0.0     240217 I52  0.0   0.2+    240219 I52  0.3+  0.2-
240217 G96  0.1-  0.1-    240217 H01  0.0   0.0     240219 I52  0.2-  0.1-
240217 H01  0.1-  0.1-    240218 I52  0.2-  0.1-    240219 H21  0.1-  0.0
240217 H01  0.0   0.1-    240218 I52  0.4+  0.1-    240219 H21  0.1+  0.1+
240217 I52  0.0   0.1-    240218 I52  0.4-  0.1-    240219 H21  0.0   0.2+

Ephemeris:
2024 DT                  a,e,i = 2.09, 0.65, 7                   q = 0.7283
Date    TT    R. A. (2000) Decl.     Delta      r    Elong.  Phase     V
2024 01 20    21 45 51.6 -17 52 18   0.1734  0.8284    24.0   151.2    28.8
...
2024 02 04    19 39 51.6 +22 47 57   0.04240 0.9560    44.7   133.5    23.5
...
2024 02 12    12 38 22.3 +47 53 05   0.06994 1.0333   129.9    47.1    20.4
...
2024 02 18    11 26 36.2 +39 28 08   0.1231  1.0933   146.8    29.6    21.3
2024 02 19    11 21 04.8 +38 34 25   0.1325  1.1034   148.4    28.0    21.4
2024 02 20    11 16 21.3 +37 46 13   0.1421  1.1135   149.7    26.6    21.6
...
2024 02 26    10 58 01.2 +34 13 32   0.2014  1.1745   154.2    21.5    22.3
...
2024 03 05    10 46 12.1 +31 12 17   0.2860  1.2561   154.6    19.8    23.1
...
2024 03 20    10 39 01.9 +27 14 04   0.4638  1.4074   146.9    22.7    24.5

A. U. Tomatic                (C) Copyright 2024 MPC           M.P.E.C. 2024-D71





More information about the Iaude mailing list